Flag for Germany Weather past 2 weeks in Wetzlar, Hesse, Germany

Now
73 °F

Overcast.


Feels Like: 76 °F
Forecast: 61 / 79 °F
Wind: 2 mph from Northeast

Location: Giessen

Current Time: Jul 5, 2015 at 3:12:52 AM

Latest Report: Jul 5, 2015 at 3:00 AM


Visibility: 16 mi

Pressure: 30.08 "Hg

Humidity: 66%

Dew point: 61 °F

Location of WetzlarLocation

Historic Weather in Wetzlar — Graph

°F

Wetzlar temperature yesterday

Maximum temperature yesterday: 99 °F (at 6:00 PM)
Minimum temperature yesterday: 69 °F (at 6:00 AM)
Average temperature yesterday: 84 °F

Past Weeks' High & Low Weather Summary

 TemperatureHumidityPressure
High99 °F (Jul 4, 6:00 PM)97% (Jun 22, 11:00 PM)30.24 "Hg (Jun 22, 11:00 PM)
Low46 °F (Jun 25, 6:00 AM)21% (Jul 4, 6:00 PM)29.69 "Hg (Jun 23, 1:00 AM)
Average67 °F65%30.08 "Hg
* Reported Jun 20 2:00 AM — Jul 5 2:00 AM, Wetzlar, Weather by CustomWeather, © 2015

Note: Actual official high and low records may vary slightly from our data, if they occured in-between our weather recording intervals... More about our weather records

Advertising

Wetzlar weather history for previous 24 hours

 ConditionsComfort  
Time TempWeatherWind HumidityBarometerVisibility
2:00 AM
Sun, Jul 5
74 °FOvercast.1 mph61%30.07 "Hg17 mi
1:00 AM74 °FOvercast.2 mph62%30.07 "Hg17 mi
12:00 AM73 °FPassing clouds.2 mph67%30.06 "Hg17 mi
11:00 PM
Sat, Jul 4
82 °FOvercast.1 mph48%30.05 "Hg18 mi
10:00 PM84 °FOvercast.3 mph44%30.05 "Hg19 mi
9:00 PM87 °FOvercast.3 mph43%30.04 "Hg19 mi
8:00 PM92 °FOvercast.5 mph34%30.04 "Hg18 mi
7:00 PM97 °FSunny.6 mph25%30.03 "Hg15 mi
6:00 PM99 °FSunny.7 mph21%30.01 "Hg13 mi
5:00 PM98 °FSunny.5 mph26%30.02 "Hg17 mi
4:00 PM98 °FSunny.5 mph25%30.03 "Hg16 mi
3:00 PM98 °FSunny.5 mph30%30.03 "Hg16 mi
2:00 PM96 °FPassing clouds.6 mph32%30.03 "Hg13 mi
1:00 PM94 °FScattered clouds.5 mph35%30.05 "Hg15 mi
12:00 PM90 °FScattered clouds.5 mph39%30.06 "Hg19 mi
11:00 AM89 °FSunny.5 mph42%30.07 "Hg17 mi
10:00 AM85 °FScattered clouds.5 mph49%30.09 "Hg13 mi
9:00 AM80 °FSunny.2 mph62%30.10 "Hg11 mi
8:00 AM75 °FScattered clouds.2 mph75%30.11 "Hg7 mi
7:00 AM71 °FSunny.2 mph84%30.12 "Hg6 mi
6:00 AM69 °FSunny.2 mph88%30.12 "Hg5 mi
5:00 AM69 °FClear.2 mph87%30.12 "Hg6 mi
4:00 AM71 °FClear.2 mph83%30.13 "Hg8 mi
3:00 AM71 °FClear.2 mph81%30.14 "Hg9 mi
Weather by CustomWeather, © 2015

See weather overviewHow to use our weather pages